Flag for Germany

Past Weather in Leipzig, Saxony, Germany — Yesterday and Last 2 Weeks

Now
46 °F

Clear.


Feels Like: 46 °F
Forecast: 77 / 47 °F
Wind: 2 mph from North

Location: Leipzig-Schkeuditz
Current Time: Sep 20, 2020 at 4:34:11 am
Latest Report: Sep 20, 2020 at 3:50 am
Visibility: 10 mi
Pressure30.07 "Hg
Humidity: 76%
Dew Point: 39 °F
Location of LeipzigLocation

Past Weather in Leipzig — Graph

°F

Leipzig Temperature Yesterday

Maximum temperature yesterday: 75 °F (at 3:20 pm)
Minimum temperature yesterday: 43 °F (at 5:20 am)
Average temperature yesterday: 58 °F

High & Low Weather Summary for the Past Weeks

 TemperatureHumidityPressure
High86 °F (Sep 14, 3:50 pm)100% (Sep 10, 2:20 am)30.42 "Hg (Sep 10, 2:20 am)
Low43 °F (Sep 18, 6:20 am)22% (Sep 19, 3:20 pm)29.95 "Hg (Sep 5, 6:50 am)
Average64 °F64%30.18 "Hg
* Reported Sep 5 2:20 am — Sep 20 2:50 am, Leipzig. Weather by CustomWeather, © 2020

Note: Actual official high and low records may vary slightly from our data, if they occured in-between our weather recording intervals... More about our weather records

Leipzig Weather History for the Previous 24 Hours

Scroll right to see more
 ConditionsComfort  
Time TempWeatherWind HumidityBarometerVisibility
2:50 am
Sun, Sep 20
50 °FClear.7 mph67%30.09 "Hg10 mi
2:20 am52 °FClear.8 mph62%30.09 "Hg10 mi
1:50 am54 °FClear.10 mph58%30.09 "Hg10 mi
1:20 am54 °FClear.12 mph58%30.09 "Hg10 mi
12:50 am54 °FClear.12 mph58%30.09 "Hg10 mi
12:20 am54 °FClear.10 mph58%30.09 "Hg10 mi
11:50 pm
Sat, Sep 19
55 °FClear.10 mph55%30.09 "Hg10 mi
11:20 pm55 °FClear.12 mph51%30.09 "Hg10 mi
10:50 pm55 °FClear.10 mph55%30.09 "Hg10 mi
10:20 pm55 °FClear.9 mph51%30.09 "Hg10 mi
9:50 pm57 °FClear.10 mph48%30.09 "Hg10 mi
9:20 pm59 °FClear.9 mph42%30.09 "Hg10 mi
8:50 pm61 °FClear.9 mph39%30.09 "Hg10 mi
8:20 pm63 °FClear.9 mph34%30.09 "Hg10 mi
7:50 pm64 °FClear.10 mph32%30.09 "Hg10 mi
7:20 pm66 °FClear.12 mph28%30.09 "Hg10 mi
6:50 pm68 °FSunny.14 mph28%30.09 "Hg10 mi
6:20 pm70 °FSunny.14 mph27%30.09 "Hg10 mi
5:50 pm72 °FSunny.14 mph22%30.09 "Hg10 mi
5:20 pm72 °FSunny.13 mph23%30.09 "Hg10 mi
4:50 pm73 °FSunny.12 mph22%30.12 "Hg10 mi
4:20 pm73 °FSunny.12 mph23%30.12 "Hg10 mi
3:50 pm73 °FPassing clouds.13 mph27%30.12 "HgN/A
3:20 pm75 °FPassing clouds.8 mph22%30.12 "HgN/A
2:50 pm72 °FPassing clouds.9 mph27%30.15 "HgN/A
2:20 pm72 °FPassing clouds.8 mph29%30.15 "HgN/A
1:50 pm73 °FPassing clouds.6 mph27%30.15 "HgN/A
1:20 pm70 °FSunny.10 mph31%30.15 "Hg10 mi
12:50 pm70 °FSunny.12 mph31%30.15 "Hg10 mi
12:20 pm68 °FPassing clouds.10 mph38%30.18 "HgN/A
11:50 am66 °FPassing clouds.6 mph43%30.18 "HgN/A
11:20 am61 °FPassing clouds.7 mph48%30.18 "HgN/A
10:50 am59 °FPassing clouds.7 mph55%30.21 "HgN/A
10:20 am57 °FPassing clouds.5 mph55%30.21 "HgN/A
9:50 am55 °FPassing clouds.3 mph59%30.21 "HgN/A
9:20 am54 °FSunny.2 mph63%30.21 "Hg10 mi
8:50 am50 °FPassing clouds.3 mph67%30.21 "HgN/A
8:20 am48 °FSunny.6 mph71%30.21 "Hg10 mi
7:50 am46 °FSunny.5 mph71%30.21 "Hg10 mi
7:20 am45 °FSunny.6 mph76%30.21 "Hg10 mi
6:50 am45 °FClear.9 mph76%30.21 "Hg10 mi
6:20 am45 °FClear.9 mph76%30.21 "Hg10 mi
5:50 am45 °FClear.9 mph76%30.21 "Hg10 mi
5:20 am43 °FClear.6 mph76%30.21 "Hg10 mi
4:50 am45 °FClear.2 mph76%30.24 "Hg10 mi
4:20 am48 °FClear.8 mph66%30.24 "Hg10 mi
Weather by CustomWeather, © 2020

See weather overview